025  
NZUS52 KFFC 150110  
RWROBS  
WEATHER ROUNDUP FOR GEORGIA  
NATIONAL WEATHER SERVICE PEACHTREE CITY GA  
900 PM EDT TUE AUG 14 2018  
 
NOTE: "FAIR" INDICATES FEW OR NO CLOUDS BELOW 12,000 FEET WITH NO  
SIGNIFICANT WEATHER AND/OR S TO VISIBILITY
.  
 
* = USE WITH CAUTION. THE STATIONS MARKED WITH AN ASTERISK MAY NOT  
REPORT WEATHER SUCH AS PRECIPITATION, FOG, OR THUNDER AND ARE NOT  
QUALITY CONTROLLED BY NWS.  
 
THE REMARK "TC" DENOTES TEMPERATURE READING IN DEGREES CELSIUS.  
 
GAZ001>058-150200-  
NORTH GEORGIA  
 
CITY SKY/WX TMP DP RH WIND PRES REMARKS
 
ATLANTA FAIR 83 63 50 NW7 30.04R HX 84  
ATHENS FAIR 76 66 71 CALM 30.03R  
CHAMBLEE FAIR 76 64 66 N5 30.04R  
PEACHTREE CITY FAIR 76 72 87 CALM 30.04R  
ROME FAIR 78 70 76 CALM 30.02S HX 80  
WEST ATLANTA FAIR 78 70 76 CALM 30.03S HX 80  
GAINESVILLE FAIR 78 66 66 W5 30.07R HX 80  
CARTERSVILLE FAIR 71 71 100 CALM 30.04R  
BLAIRSVILLE FAIR 69 65 88 S5 30.10S  
DECATUR FAIR 77 69 76 CALM 30.01S  
CLEMSON FAIR 78 68 71 S3 30.03R HX 80  
GREENVILLE CLOUDY 78 67 68 SW5 30.03R HX 80  
FLORENCE NOT AVBL  
CHARLESTON FAIR 74 72 93 W7 30.02R  
MYRTLE BEACH FAIR 79 74 84 S8 30.02R HX 82  
FAYETTEVILLE MOCLDY 76 73 91 S6 29.99R  
WILMINGTON FAIR 80 74 81 SW8 30.01R HX 85  
RALEIGH FAIR 76 72 87 S5 30.00R  
DALTON FAIR 73 68 83 CALM 30.05S  
LAWRENCEVILLE FAIR 77 66 68 CALM 30.04S  
MARIETTA PTCLDY 81 64 55 NW3 30.04S HX 83  
KENNESAW FAIR 82 65 56 NW3 30.05S HX 84  
WINDER FAIR 79 63 57 NW5 30.06S HX 80  
CANTON FAIR 77 68 73 CALM 30.07S  
TOCCOA FAIR 82 69 65 W3 30.03R HX 85  
CORNELIA FAIR 76 72 87 CALM 30.06S  
JASPER FAIR 73 67 80 CALM 30.11R  
CHARLOTTE FAIR 78 67 68 CALM 30.02R HX 80  

 
 
GAZ059>098-102>109-150200-  
OTHER STATIONS  
 
CITY SKY/WX TMP DP RH WIND PRES REMARKS
 
AUGUSTA-BUSH FAIR 76 72 87 CALM 30.00R  
AUGUSTA-DANIEL FAIR 86 63 45 CALM 30.02R HX 87  
COLUMBUS FAIR 83 71 67 W3 30.01R HX 87  
MACON FAIR 78 73 84 CALM 30.00S HX 81  
ROBINS AFB FAIR 78 73 84 CALM 30.00S HX 81  
GREENSBORO FAIR 79 70 73 CALM 29.99S HX 81  
THOMSON FAIR 75 71 87 CALM 30.06R  
SANDERSVILLE NOT AVBL  
THOMASTON FAIR 79 72 78 CALM 30.04S HX 82  
BUTLER N/A 78 75 90 W5 30.02S HX 81  
LAGRANGE FAIR 79 79 98 CALM 30.02S HX 85  
MILLEDGEVILLE FAIR 79 72 78 CALM 30.00R HX 82  
CARROLLTON FAIR 74 70 86 CALM 30.08S  
AMERICUS FAIR 75 70 83 CALM 30.03S  
CORDELE FAIR 78 70 75 SW5 30.03R HX 81  
SAVANNAH MOCLDY 79 74 84 SE3 30.02R HX 82  
NEW BERN FAIR 73 73 100 S6 30.02R  
HUNTSVILLE FAIR 83 69 62 CALM 30.01R HX 86  

 
 
GAZ099>101-110>166-150200-  
OTHER STATIONS  
 
CITY SKY/WX TMP DP RH WIND PRES REMARKS
 
VALDOSTA FAIR 74 73 97 SW3 30.02F  
ALMA FAIR 80 71 74 CALM 30.01R HX 84  
ST SIMONS FAIR 82 73 74 S8 30.02S HX 87  
FT STEWART FAIR 77 75 93 SE6 30.00R  
ALBANY TSTM 74 70 87 W9 30.06S FOG  
HUNTER AFB FAIR 82 75 81 S6 30.00R HX 88  
MOODY AFB FAIR 78 71 80 W6 30.02F HX 80  
BRUNSWICK MOCLDY 79 72 78 W5 30.04R HX 82  
BAINBRIDGE N/A 81 73 78 CALM 30.03R HX 85  
MOULTRIE FAIR 75 72 88 W6 30.04R  
VIDALIA TSTM 75 70 83 W9G18 30.06R  
WAYCROSS FAIR 79 76 91 SW6 30.02R HX 83  
DOUGLAS FAIR 75 73 94 SW3 30.02F  
TIFTON FAIR N/A N/A N/A NW7 30.04R  
HAZELHURST FAIR 74 69 82 SW7 30.00R  
COLUMBIA FAIR 81 73 76 W3 29.99R HX 86  
RALEIGH FAIR 76 72 87 S5 30.00R  
GREENSBORO MOCLDY 79 66 64 W6 30.00R HX 81  
HICKORY CLOUDY 77 67 71 CALM 30.03R  
ASHEVILLE FAIR 75 63 66 NW3 30.11R  
KNOXVILLE FAIR 78 66 66 SW5 30.03R HX 80  
NASHVILLE MOCLDY 85 63 47 N5 30.01S HX 86  
JACKSONMS MOCLDY 83 72 69 CALM 29.99S HX 88  
TUPELO NOT AVBL  
GREENWOOD FAIR 81 76 84 CALM 29.98S HX 87  
MERIDIAN FAIR 83 78 85 CALM 29.99S HX 93  
NEW ORLEANS MOCLDY 84 76 76 S5 29.99R HX 93  

 
 
 
CLICK HERE TO GO TO PREVIOUS BULLETINS.

The Nexlab GA Page Main Text Page